METAR Formatted Surface Weather Observation
Issued by NWS

Home | Current Version | Previous Version | Text Only | Print | Product List | Glossary On
Versions: 1 2 3 4 5 6 7 8 9 10 11 12 13 14 15 16 17 18 19 20 21 22 23 24 25 26 27 28 29 30 31 32 33 34 35 36 37 38 39 40 41 42 43 44 45
000
SAUS45 KPSR 260859
MTRNYL
METAR KNYL 260857Z AUTO 15006KT 10SM CLR 34/18 A2982 RMK AO2 SLP092
T03390178 51005



USA.gov is the U.S. government's official web portal to all federal, state and local government web resources and services.